Regional Weather Roundup
Issued by NWS Albany, NY

Home | Current Version | Previous Version | Text Only | Print | Product List | Glossary On
Versions: 1 2 3 4 5 6 7 8 9 10 11 12 13 14 15 16 17 18 19 20 21 22 23 24 25 26 27 28 29 30 31 32 33 34 35 36 37 38 39 40 41 42 43 44 45 46 47 48 49 50
000
ASUS41 KALY 231010
RWRALY

NEW YORK STATE HOURLY WEATHER ROUNDUP
NATIONAL WEATHER SERVICE ALBANY NY
600 AM EDT FRI JUN 23 2017

NOTE: "FAIR" INDICATES FEW OR NO CLOUDS BELOW 12,000 FEET WITH NO
SIGNIFICANT WEATHER AND/OR NO OBSTRUCTIONS TO VISIBILITY.

NYZ032-033-038>043-046>054-057>066-NYZ062>081-082-084-231100-
EAST


CITY           SKY/WX    TMP DP  RH WIND       PRES   REMARKS
ALBANY         CLOUDY    72  64  76 S13       29.77F
GLENS FALLS    CLOUDY    66  62  87 CALM      29.76F
POUGHKEEPSIE   CLOUDY    70  66  87 CALM      29.80S
NEWBURGH       MOCLDY    73  70  88 CALM      29.84S
MONTGOMERY     CLOUDY    71  68  90 SW5       29.81F
WHITE PLAINS   PTCLDY    75  70  83 CALM      29.83S
ISLIP          MOCLDY    72  71  97 SW7       29.83F FOG
NEW YORK CITY  MOCLDY    79  72  79 S9        29.82S
CENTRAL PARK   PTCLDY    78  70  76 W3        29.86R
$$

NYZ005>009-017-018-044>046-055-056-231100-
CENTRAL


CITY           SKY/WX    TMP DP  RH WIND       PRES   REMARKS
FULTON         CLOUDY    70  67  90 N5        29.75R
SYRACUSE       CLOUDY    76  66  71 SW13      29.71F
ROME           CLOUDY    71  65  81 E7        29.74F
ELMIRA         CLEAR     72  68  88 SW7       29.78
BINGHAMTON     NOT AVBL
MONTICELLO     CLOUDY    64  64 100 CALM      29.87S
$$

NYZ026>034-041>043-087-231100-
NORTH


CITY           SKY/WX    TMP DP  RH WIND       PRES   REMARKS
WATERTOWN      RAIN      67  67 100 SW8       29.73R FOG
FORT DRUM      NOT AVBL
OGDENSBURG     RAIN      67  66  96 S6        29.69R
MASSENA        CLOUDY    64  63  96 CALM      29.69F
SARANAC LAKE   CLOUDY    62  62 100 SW6       29.76F
PLATTSBURGH    LGT RAIN  62  60  93 S6        29.73F
$$

NYZ001>004-010>016-019>021-085-231100-
WEST


CITY           SKY/WX    TMP DP  RH WIND       PRES   REMARKS
NIAGARA FALLS  CLOUDY    75  67  76 SW12      29.70F
BUFFALO        CLOUDY    75  66  73 SW13G22   29.71F
DUNKIRK        CLEAR     72  67  84 S7        29.72F
JAMESTOWN      CLOUDY    70  63  78 SW9       29.78F
WELLSVILLE     MOCLDY    71  64  78 SW9       29.83F
ROCHESTER      CLOUDY    74  68  81 SW3       29.72F
PENN YAN       CLOUDY    71  64  78 S6        29.76F
$$

             KEY
       WCI = WIND CHILL INDEX
       VSB = VISIBILITY
       HX  = HEAT INDEX
$$



USA.gov is the U.S. government's official web portal to all federal, state and local government web resources and services.